www.pogodaiklimat.ru

Погода и климат >> Архив погоды >> Россия >> Челябинская область >> Катав-Ивановск


ПОГОДА в Катав-Ивановске

  • Прогноз погоды в Катав-Ивановске
  • Монитор погоды в Катав-Ивановске
  • Климат города

АРХИВ ПОГОДЫ в Катав-Ивановске

Время (UTC), дата Ветер
(напр.,м/с)
 
Видим.   Явления Облачность Т
(С)
Тd
(С)
f
(%)
Тe
(С)
Тes
(С)
Комфортность P
(гПа)
Po
(гПа)
Тmin
(С)
Tmax
(С)
R
(мм)
R24
(мм)
S
(см)
18 18.05 ЮВ 2 4000 м 4/4 600 м
[Sc diur, vesp]
+16.0 -0.3 33 +16 +16 1016.0 960.7
21 18.05 Ю 2 4000 м 8/8 600 м
[Sc]
+12.8 -0.1 41 +12 +12 1017.6 961.6
00 19.05 Ю 2 50 км 9/9 600 м
[Sc]
+11.7 +1.0 48 +11 +11 1018.0 961.8
03 19.05 Ю 3 50 км {ливн. осадки} 9/9 600 м
[Sc]
+9.6 +5.8 77 +7 +8 1018.0 961.4 +8.1 1
06 19.05 Ю 2 50 км {ливн. осадки} 9/9 600 м
[Sc]
+13.9 +6.9 63 +14 +15 1017.2 961.5
09 19.05 Ю 2 20 км в посл. час ливневой дождь 9/9 600 м
[Sc]
+15.5 +10.6 73 +15 +17 1016.4 961.1
12 19.05 Ю 2 20 км {ливн. осадки} 9/9 600 м
[Sc]
+16.5 +11.4 72 +17 +17 1015.5 960.5
15 19.05 Ю 1 20 км 8/8 600 м
[Sc]
+18.9 +10.2 57 +21 +21 комфорт 1014.0 959.5 +19.7 0.1
18 19.05 Ю 2 10 км 6/6 600 м
[Sc diur, vesp]
+16.5 +10.3 67 +17 +17 1014.0 959.0
21 19.05 Ю 2 4000 м ясно +16.3 +8.3 59 +16 +16 1013.5 958.5
00 20.05 Ю 3 50 км 6/3 600 м
[Sc Ac trans]
+14.5 +7.9 65 +14 +14 1014.1 958.7
03 20.05 Ю 1 50 км 1/1 600 м
[Cu med, cong]
+19.0 +9.3 53 +21 +25 комфорт 1012.3 957.9 +14.5
06 20.05 ЮЗ 4
{12}
50 км 8/4 600 м
[Cu Sc Ac lent Ci fib]
+23.2 +7.2 36 +24 +27 комфорт 1011.5 957.9
09 20.05 СЗ 4
{17}
20 км гроза без осадков 10/10 600 м
[Cb cap]
+16.1 +8.8 62 +15 +15 1012.4 957.4
12 20.05 Ю 2 50 км в посл. час гроза {ливн. осадки} 8/8 600 м
[Cu Sc]
+15.7 +12.0 79 +16 +17 1012.4 957.4
15 20.05 Ю 2 50 км 8/8 600 м
[Cu Sc]
+19.9 +11.1 57 +22 +22 комфорт 1010.8 956.6 +24.5 2
18 20.05 Ю 1 10 км 8/6 600 м
[Cu Sc Ci fib]
+17.7 +9.2 57 +19 +19 1013.3 958.5
21 20.05 З 1 4000 м 4/3 600 м
[Cu hum Ci fib]
+15.2 +9.2 67 +16 +16 1014.8 959.5
00 21.05 Ю 2 50 км 6/6 600 м
[Sc]
+13.3 +9.6 78 +13 +13 1016.2 960.5
03 21.05 З 1 20 км 10/10 600 м
[Cu Sc]
+14.2 +10.4 78 +15 +15 1017.6 962.0 +13.2
06 21.05 З 2 50 км 10/10 600 м
[Cu Sc]
+14.1 +10.0 76 +14 +14 1019.2 963.5
09 21.05 СЗ 3 50 км 9/9 600 м
[Cu Sc]
+14.7 +9.3 70 +14 +15 1019.7 964.1
12 21.05 С 3 50 км 9/9 600 м
[Cu Sc]
+12.8 +8.9 77 +11 +12 1020.9 964.8
15 21.05 С 4 50 км 9/6 600 м
[Sc Ci fib]
+11.6 +5.8 68 +10 +10 1021.6 965.2 +16.1
18 21.05 СЗ 2 4000 м 9/9 600 м
[Sc]
+9.1 +4.3 72 +8 +8 1024.2 967.2
21 21.05 СЗ 1 10 км ясно +6.1 +1.9 74 +5 +5 1026.2 968.5
00 22.05 ЮВ 2 50 км ясно +1.3 +1.2 99 -2 -2 1028.4 969.5
03 22.05 С 1 50 км 3/0
[Ci fib]
+8.5 +2.7 67 +8 +12 1028.0 970.7 +0.9
06 22.05 СЗ 4 50 км 3/1 600 м
[Cu hum Ci fib]
+14.7 +1.2 40 +14 +21 1026.3 970.2
09 22.05 З 3
{12}
50 км 1/1 1000 м
[Cu hum]
+18.3 +2.5 35 +19 +30 1023.8 968.5
12 22.05 З 4-10
{11}
50 км 1/0
[Ci fib]
+20.1 +3.1 32 +21 +25 комфорт 1022.2 967.3
15 22.05 З 3
{11}
50 км 3/0
[Ci fib]
+19.8 +3.8 35 +21 +21 комфорт 1021.8 967.0 +20.9
18 22.05 З 2 10 км 3/3 600 м
[Sc diur, vesp]
+17.2 +4.3 42 +18 +18 1023.1 967.7
21 22.05 С 2 10 км ясно +14.7 +4.9 52 +15 +15 1024.7 968.7
00 23.05 Ю 1 50 км 3/0
[Ci fib]
+9.9 +4.9 71 +10 +10 1026.9 969.9
03 23.05 ЮВ 1 50 км ясно +14.5 +6.8 60 +15 +20 1027.0 970.9 +8.1
06 23.05 С 2 50 км ясно +20.7 +2.5 30 +22 +34 комфорт 1026.4 971.4
09 23.05 СЗ 3 50 км 1/1 1000 м
[Cu hum]
+24.3 +4.0 27 +24 +35 комфорт 1024.3 970.1
12 23.05 З 2 50 км 3/3 1000 м
[Cu hum]
+25.9 +5.2 26 +25 +30 комфорт 1022.5 968.7
15 23.05 З 2 50 км 10/3 600 м
[Cu hum Ac trans Ci sp]
+23.7 +6.2 32 +24 +24 комфорт 1021.4 967.2 +25.9
18 23.05 ЮЗ 2 10 км 3/3 600 м
[Sc diur, vesp]
+19.7 +6.5 42 +21 +21 комфорт 1021.2 966.4
21 23.05 Ю 1 4000 м 10/10 600 м
[Sc]
+16.2 +7.2 55 +17 +17 1020.4 965.0
00 24.05 Ю 2 20 км 10/10 600 м
[Sc]
+16.4 +7.5 56 +17 +17 1020.0 964.7
03 24.05 ЮЗ 2 50 км 10/6 600 м
[Sc Ac trans Ci sp]
+17.8 +5.9 46 +18 +19 1019.4 964.3 +15.1
06 24.05 ЮЗ 3 50 км 9/0
[Ac trans]
+17.6 +7.6 52 +18 +23 1018.3 963.2
09 24.05 З 3-14
{14}
50 км 4/3 600 м
[Cu hum Ac lent]
+24.2 +5.2 29 +24 +32 комфорт 1015.0 961.2
12 24.05 З 3-11
{17}
50 км 9/8 600 м
[Cu Sc Ac trans]
+22.0 +7.0 38 +23 +24 комфорт 1015.0 960.9
15 24.05 ЮЗ 3
{12}
50 км 10/10 600 м
[Cu Sc]
+18.4 +8.5 52 +19 +19 1015.2 960.5 +24.3
18 24.05 Ю 3 4000 м 10/10 600 м
[Cu Sc]
+15.6 +10.6 72 +15 +15 1014.7 959.6
21 24.05 ЮЗ 2 н/о н/о +14.9 +10.3 74 +15 +15 1014.2 958.9
00 25.05 ЮЗ 2 4000 м слабый дождь 10/0 600 м
[As op]
+12.4 +12.2 99 +11 +11 1013.5 957.9
03 25.05 Ю 3 4000 м слабый дождь 10/10 600 м
[Frnb Ns]
+11.9 +11.9 100 +10 +10 1012.6 956.9 +11.9 7
06 25.05 СЗ 1 4000 м слабый дождь 10/10 600 м
[Frnb Ns]
+11.3 +11.3 100 +11 +11 1011.8 956.0 +11.1
09 25.05 СЗ 3 20 км {дождь} 10/10 600 м
[St]
+8.8 +8.8 100 +6 +6 1012.5 956.1
12 25.05 СЗ 3 4000 м слабый дождь {морось} 10/10 600 м
[St]
+7.0 +7.0 100 +4 +4 1014.2 957.4

 

Местоположение метеостанции Катав-Ивановск (Челябинская область, Россия): широта 54.77 долгота 58.22 высота над уровнем моря 477 м.

В архиве по умолчанию представлена погода в Катав-Ивановске за последнюю неделю. Архивные данные за месяц целиком и за предыдущие месяцы, начиная с января 2011 года, Вы можете получить, выбрав интересующий диапазон дат из раскрывающегося списка и нажав кнопку "Ввод!".


*Определитесь, кто Вы:
робот инопланетянин человек

Внимание! Время в таблицах - всемирное. Для получения местного времени необходимо прибавить поправку, которая в Катав-Ивановске равна 5 ч.

Смотрите также архив погоды в соседних городах и на ближайших метеорологических станциях:

Погода в Николаевке (Башкирия, Россия) (55 км)
Погода в Ревети (Башкирия, Россия) (76 км)
Погода в Улу-Теляке (Башкирия, Россия) (83 км)
Погода в Учалах (Башкирия, Россия) (90 км)
Погода в Белорецке (Башкирия, Россия) (94 км)
Погода в Архангельском (Башкирия, Россия) (100 км)
Погода в Златоусте (Челябинская область, Россия) (103 км)
Погода в Дуване (Башкирия, Россия) (105 км)
Погода в Тукане (Башкирия, Россия) (109 км)
Погода в Верхнеуральске (Челябинская область, Россия) (118 км)

Пояснения к столбцам:

Ветер - указаны скорость ветра в м/с - средняя за 10 мин, порывы в срок и между сроками (в фигурных скобках) и направление, откуда дует ветер: С - северный, СВ - северо-восточный, В - восточный, ЮВ - юго-восточный, Ю - южный, ЮЗ - юго-западный, З - западный, СЗ - северо-западный.
Видимость - горизонтальная дальность видимости в метрах или километрах. При видимости от 1 до 10 км при отсутствии осадков обычно наблюдается дымка, при ухудшении видимости до 1 км и менее - туман. В сухую погоду видимость может ухудшаться дымом, пылью или мглою.
Явления - указаны атмосферные явления, наблюдавшиеся в срок или в последний час перед сроком; фигурными скобками обозначены явления, наблюдавшиеся между сроками (за 1-3 часа до срока); квадратными скобками обозначены град или гололедные отложения с указанием их диаметра в мм.
Облачность - указаны через наклонную черту общая и нижняя облачность в баллах и высота нижней границы облаков в метрах; квадратными скобками обозначены формы облаков: Ci - перистые, Cs - перисто-слоистые, Cc - перисто-кучевые, Ac - высококучевые, As - высокослоистые, Sc - слоисто-кучевые, Ns - слоисто-дождевые, Cu - кучевые, Cb - кучево-дождевые. Подробнее классификацию облаков см. в Атласе облаков (PDF).
T - Температура воздуха - температура, измеренная на высоте 2 м над землей.
Td - Температура точки росы - температура, при понижении до которой содержащийся в воздухе водяной пар достигнет насыщения.
f - Относительная влажность воздуха - влажноcть воздуха, измеренная на высоте 2 м над землей.
Te - Эффективная температура - температура, которую ощущает одетый по сезону человек в тени. Характеристика душности погоды. При расчете учитывается влияние влажности воздуха и скорости ветра на теплоощущения человека.
Tes - Эффективная температура на солнце - температура, которую ощущает человек, с поправкой на солнечный нагрев. Характеристика знойности погоды. Зависит от высоты солнца над горизонтом, облачности и скорости ветра. Ночью, в пасмурную погоду, а также при ветре 12 м/с и более поправка равна нулю.
P - Атмосферное давление - приведенное к уровню моря атмосферное давление.
Po - Атмосферное давление - измеренное на уровне метеостанции атмосферное давление.
Tmin - Минимальная температура - минимум температуры воздуха на высоте 2 м над землей.
Tmax - Максимальная температура - максимум температуры воздуха на высоте 2 м над землей.
R - Количество осадков - Количество выпавших осадков за период времени, мм. При наведении курсора мыши на число - период времени, за который выпало указанное количество осадков.
R24 - Количество осадков - Количество выпавших осадков за 24 часа, мм.
S - Снежный покров - Высота снежного покрова, см. При наведении курсора мыши на число - состояние снежного покрова и степень покрытия местности в баллах.